Showing default

OV2-1, 1641

Orbit data source: Space-Track

OV2-1, 1641 is a payload satellite owned by USAF SSD (US) in LEO that was launched on Fri, 15 Oct 1965 UTC via a TITAN IIIC launch vehicle from the Air Force Eastern Test Range (AFETR). Payloads include a variety of satellites, spacecraft, and rockets equipped with specific instruments for various scientific and technological missions. These include communications satellites like Starlink; space stations such as the ISS; scientific satellites like the Hubble; Earth observation satellites from companies like Planet Labs, Umbra, and HawkEye 360; GPS; miniature CubeSats for education and research; and military/defense satellites.

Loading next visibility...
OV2-1 details
Identifier
1641, 1965-082C
Orbit
LEO
Last TLE update11 hours ago
Origin
Flag of USUSAF SSD (US)
ManufacturerNorthrop
MissionNon-operational Civil Science
Bus & MotorOV2, Unknown motor
Mass170 kg wet, 170 kg dry
Launch date (UTC)
1965-10-15 (59 years ago)
Launch vehicle
TITAN IIIC
Launch site
Air Force Eastern Test Range (AFETR)
Object type
Payload
Rocket body
Debris
Shape & HBRCyl, Unknown HBR
Radar Cross Section0.424 m², Medium (>0.1 m² and < 1m²)

Expand to show TLE details & history

TLE from 11 hours ago
0 OV2-1
1 01641U 65082C   24356.79921024  .00000644  00000-0  14169-3 0  9995
2 01641  32.2948 145.6078 0018444  73.6789 286.5883 14.54340598138267
Epoch: 2024-12-21T19:10Z
Definitive object data (Epoch: 2024-12-21T19:10:51.764Z)
Latitude-0.00005°
Longitude127.04685°
Altitude706.468 km
Speed7.507 km/s
True Right ascension09h 42m 25s
True Declination0° 00' 00"
Sunlit
Object was in full shadow at TLE epoch
Visualization TLE readout
Latitude-31.36121°
Longitude50.7699°
Altitude730.701 km
Speed7.485 km/s
Apparent Right ascension02h 01m 09s
Apparent Declination-77° 54' 40"
Sunlit
Object is in full shadow
Visualization observer readout
Local Sidereal Time05:26:37
Azimuth191.1° SSW
Elevation-31.813°
Doppler factor1
Orbital elements
Apogee altitude728.148 km
Perigee altitude701.982 km
Semi-major axis7,093.202 km
Eccentricity0.0018444
Inclination32.2948°
RAAN145.6078°
Arg. of periapsis73.6789°
True anomaly286.38561°
Mean anomaly286.5883°
Eccentric anomaly286.48697°
Mean motion3.63312 °/min
BSTAR0.00014169
Orbital period99.09 mins
Loading maneuver chart data...

OV2-1 Visibility forecast

Observer location: undefined°, undefined

Span
Click to sort rows by Start time (UTC) header in descending order
Start Az.
Max El. time (UTC)
Max El. Az.
Max El.
End time (UTC)
End Az.
5 mins2024-12-22 13:31:52.779Z190.212° SSW2024-12-22 13:33:52.779Z164.423° S16.128°2024-12-22 13:36:52.779Z124.228° SE
7 mins2024-12-22 15:15:52.779Z220.39° SW2024-12-22 15:18:52.779Z165.209° S27.306°2024-12-22 15:22:52.779Z111.028° ESE
7 mins2024-12-22 16:59:52.779Z240.396° WSW2024-12-22 17:02:52.779Z190.73° SSW28.002°2024-12-22 17:06:52.779Z128.106° SE
4 mins2024-12-22 18:45:52.779Z222.658° SW2024-12-22 18:46:52.779Z208.112° SW17.381°2024-12-22 18:49:52.779Z166.344° S
|